Terminal Aerodrome Forecast
Issued by NWS Charleston, SC

Home | Current Version | Previous Version | Text Only | Print | Product List | Glossary On
Versions: 1 2 3 4 5 6 7 8 9 10 11 12 13 14 15
000
FTUS42 KCHS 201531 AAB
TAFSAV
TAF AMD
KSAV 201531Z 2016/2112 09008KT P6SM SCT200
     FM210500 06004KT P6SM BKN040 OVC200=

USA.gov is the U.S. government's official web portal to all federal, state and local government web resources and services.